Regional Weather Roundup
Issued by NWS

Home | Current Version | Previous Version | Graphics & Text | Print | Product List | Glossary On
Versions: 1 2 3 4 5 6 7 8 9 10 11 12 13 14 15 16 17 18 19 20 21 22 23 24 25 26 27 28 29 30 31 32 33 34 35 36 37 38 39 40 41 42 43 44 45 46 47 48 49 50
000
ASUS43 KBIS 290620
RWRND

NORTH DAKOTA REGIONAL WEATHER ROUNDUP
NATIONAL WEATHER SERVICE BISMARCK ND
100 AM CDT TUE JUL 29 2014

NOTE: "FAIR" INDICATES FEW OR NO CLOUDS BELOW 12,000 FEET WITH NO
SIGNIFICANT WEATHER AND/OR OBSTRUCTIONS TO VISIBILITY.


NDZ001>003-009>011-017-290700-
NORTHWEST NORTH DAKOTA

CITY           SKY/WX    TMP DP  RH WIND       PRES   REMARKS
WILLISTON      CLEAR     67  55  65 CALM      30.22S
6HR MIN TEMP:  66; 6HR MAX TEMP:  81;

MINOT          CLEAR     57  54  89 CALM      30.22S
MINOT AFB      CLEAR     56  56  99 SW3       30.22R
$$

NDZ018>021-031>035-040>046-290700-
SOUTHWEST NORTH DAKOTA

CITY           SKY/WX    TMP DP  RH WIND       PRES   REMARKS
BISMARCK       CLEAR     58  53  84 CALM      30.24S
6HR MIN TEMP:  55; 6HR MAX TEMP:  75;

DICKINSON      PTCLDY    57  52  83 S10       30.24S
GARRISON         N/A     56  53  90 CALM      30.23S
6HR MIN TEMP:  56; 6HR MAX TEMP:  74;

HETTINGER ARPT CLEAR     58  50  75 SE3       30.27S
$$

NDZ004>008-012>016-024-026-027-054-290700-
NORTHEAST NORTH DAKOTA

CITY           SKY/WX    TMP DP  RH WIND       PRES   REMARKS
GRAND FORKS    CLEAR     55  53  93 W7        30.18S
GRND FRKS AFB  CLEAR     56  55  99 W1        30.19S
DEVILS LAKE    CLEAR     57  52  82 CALM      30.20S
$$

NDZ022-023-025-028>030-036>039-047>053-290700-
SOUTHEAST NORTH DAKOTA

CITY           SKY/WX    TMP DP  RH WIND       PRES   REMARKS
FARGO          CLEAR     57  53  86 CALM      30.18F
6HR MIN TEMP:  57; 6HR MAX TEMP:  74;

JAMESTOWN      CLEAR     57  52  83 W3        30.22S
$$



USA.gov is the U.S. government's official web portal to all federal, state and local government web resources and services.